This is the latest recevied weather packets stored in our database for station/object W3BRL. If no packets are shown the sender has not sent any weather packets the latest 10 day(s).
| Time | Temp. | Humidity | Pressure | Rain* | Wind** | Luminosity | Snow |
|---|---|---|---|---|---|---|---|
| 1777586066 | 10° C | 59% | 1011.3 hPa | 0 mm | - | 100 W/m² | - |
| 1777585765 | 10° C | 58% | 1011.1 hPa | 0 mm | - | 137 W/m² | - |
| 1777585459 | 10° C | 57% | 1011.1 hPa | 0 mm | - | 360 W/m² | - |
| 1777585155 | 10.56° C | 57% | 1011.1 hPa | 0 mm | - | 366 W/m² | - |
| 1777584851 | 10.56° C | 56% | 1011 hPa | 0 mm | - | 389 W/m² | - |
| 1777584549 | 10° C | 58% | 1010.9 hPa | 0 mm | - | 456 W/m² | - |
| 1777584245 | 10.56° C | 58% | 1011.1 hPa | 0 mm | - | 155 W/m² | - |
| 1777583945 | 10° C | 60% | 1010.9 hPa | 0 mm | - | 394 W/m² | - |
| 1777583641 | 9.44° C | 63% | 1011 hPa | 0 mm | - | 296 W/m² | - |
| 1777583340 | 9.44° C | 62% | 1010.9 hPa | 0 mm | - | 223 W/m² | - |
| 1777583035 | 10° C | 59% | 1011 hPa | 0 mm | - | 195 W/m² | - |
| 1777582732 | 9.44° C | 63% | 1010.9 hPa | 0 mm | - | 245 W/m² | - |
| 1777582427 | 9.44° C | 63% | 1011 hPa | 0 mm | - | 262 W/m² | - |
| 1777582121 | 8.89° C | 62% | 1011 hPa | 0 mm | - | 227 W/m² | - |
| 1777581820 | 8.89° C | 63% | 1011 hPa | 0 mm | - | 217 W/m² | - |
| 1777581519 | 8.89° C | 63% | 1011.2 hPa | 0 mm | - | 167 W/m² | - |
| 1777581216 | 8.89° C | 64% | 1011.1 hPa | 0 mm | - | 127 W/m² | - |
| 1777580915 | 8.89° C | 64% | 1010.9 hPa | 0 mm | - | 154 W/m² | - |
| 1777580615 | 8.89° C | 63% | 1011.1 hPa | 0 mm | - | 202 W/m² | - |
| 1777580311 | 8.89° C | 65% | 1010.8 hPa | 0 mm | - | 166 W/m² | - |
| 1777580008 | 8.33° C | 66% | 1011.1 hPa | 0 mm | - | 174 W/m² | - |
| 1777579703 | 8.33° C | 65% | 1011 hPa | 0 mm | - | 119 W/m² | - |
| 1777579403 | 8.89° C | 64% | 1011 hPa | 0 mm | - | 68 W/m² | - |
| 1777579098 | 8.89° C | 64% | 1010.8 hPa | 0 mm | - | 124 W/m² | - |
| 1777578798 | 8.89° C | 64% | 1011 hPa | 0 mm | - | 270 W/m² | - |
* Rain latest hour (hover to see other rain measurements)
** Current wind speed in m/s (hover to see current wind gust speed)